Regional Weather Roundup
Issued by NWS Charleston, SC

Current Version | Previous Version | Text Only | Print | Product List | Glossary Off
Versions: 1 2 3 4 5 6 7 8 9 10 11 12 13 14 15 16 17 18 19 20 21 22 23 24 25 26 27 28 29 30 31 32 33 34 35 36 37 38 39 40 41 42 43 44 45 46 47 48 49 50

000
ASUS42 KCHS 282125
RWRCHS

REGIONAL WEATHER ROUNDUP
NATIONAL WEATHER SERVICE CHARLESTON SC
400 PM EST FRI NOV 28 2014

NOTE: "FAIR" INDICATES FEW OR NO CLOUDS BELOW 12,000 FEET WITH NO
SIGNIFICANT WEATHER AND/OR OBSTRUCTIONS TO VISIBILITY.

NOT ALL STATIONS ARE QUALITY CONTROLLED BY THE NATIONAL
WEATHER SERVICE. USE DATA WITH CAUTION...ESPECIALLY
DEWPOINT OBSERVATIONS.

SCZ027-030-031-034>040-042>050-282200-
...SOUTHEAST SOUTH CAROLINA...

CITY           SKY/WX    TMP DP  RH WIND       PRES   REMARKS
N CHARLESTON   SUNNY     49  23  36 N3        30.32R
WATERFRONT PRK   N/A     48 N/A N/A NW8         N/A
MOUNT PLEASANT FAIR      48  27  43 NW6       30.32R
JOHNS ISLAND   CLEAR     52  28  40 CALM      30.32S
PINOPOLIS        N/A     54  25  32 W2        30.24S
MONCKS CORNER  FAIR      48  28  46 CALM      30.32S
SUMMERVILLE    FAIR      46  27  46 N6        30.33S
BEAUFORT MCAS  SUNNY     51  25  36 NW6       30.32R
BEAUFORT ARPT  FAIR      48  30  49 NW3       30.32R
HILTON HEAD IS SUNNY     48  28  46 N6        30.33S
WALTERBORO     CLEAR     50  19  29 NW3       30.32S
ALLENDALE      FAIR      50  23  34 CALM      30.31S

...SOUTHERN MIDLANDS AND PEE DEE...

CITY           SKY/WX    TMP DP  RH WIND       PRES   REMARKS
GEORGETOWN     NOT AVBL
KINGSTREE      NOT AVBL
ORANGEBURG     SUNNY     48  20  32 CALM      30.31S
BARNWELL       FAIR      50  27  40 W3        30.32S
AIKEN          FAIR      46  23  39 CALM      30.34S
MANNING        NOT AVBL
COLUMBIA       SUNNY     48  20  32 VRB3      30.31S
SUMTER         SUNNY     47  21  36 VRB2      30.30S
FLORENCE       SUNNY     47  20  34 NW7       30.31S
MYRTLE BEACH   SUNNY     46  19  34 N8        30.33R
N MYRTLE BEACH SUNNY     48  22  35 VRB3      30.32R

$$

GAZ063-065-086>088-099>101-113>116-118-119-134>141-150-282200-
...SOUTHEAST GEORGIA...

CITY           SKY/WX    TMP DP  RH WIND       PRES   REMARKS
SAVANNAH ARPT  SUNNY     53  24  32 N6        30.32S
HUNTER AAF     SUNNY     51  27  39 NW3       30.29F
FORT STEWART   SUNNY     52  27  37 CALM      30.30S
STATESBORO     NOT AVBL
SYLVANIA       CLEAR     51  28  40 NW6       30.33R
CLAXTON        NOT AVBL

...CSRA...CENTRAL AND FAR SOUTHEAST GEORGIA...

CITY           SKY/WX    TMP DP  RH WIND       PRES   REMARKS
THOMSON        SUNNY     51  31  46 W3        30.35S
AUGUSTA-BUSH   SUNNY     49  20  31 CALM      30.32S
AUGUSTA-DANIEL SUNNY     50  20  30 CALM      30.32R
SWAINSBORO     FAIR      52  30  43 CALM      30.32S
VIDALIA        SUNNY     52  30  43 CALM      30.32R
HAZLEHURST     FAIR      53  29  40 CALM      30.31R
ALMA           SUNNY     51  27  39 W5        30.32R
WAYCROSS       SUNNY     55  32  42 N5        30.32R
JESUP          FAIR      54  32  43 CALM      30.32R
BAXLEY         FAIR      52  30  43 CALM      30.32R
BRUNSWICK      SUNNY     50  32  50 E3        30.33R
SAINT SIMONS   SUNNY     49  31  49 E7        30.31F

$$

SCZ027-028-034-036>038-045-046-048>050-GAZ119-141-282200-
...LAKE AND SUPPLEMENTAL COASTAL OBSERVATIONS...

STATION/POSITION TIME  TEMP    WIND        PRES    WAVE   SWELL
                       AIR SEA DIR/SP/G            HT/PER HT/PER/DIR
                 (UTC) (F)     (DEG/KT/KT) (MB)    (FT/S) (FT/S/D)
UPR LAKE MARION  NOT AVBL
WINYAH BAY       2100   47     330/  5     1026.0S
LAKE MURRAY      2000   49     180/  2/  4 1026.1R
ACE BASIN NERRS  2100   48        CALM     1026.0S
FORT PULASKI     2100   48      50/  4/  7 1026.9R
SAPELO ISLAND    2100   49      90/  5     1026.0S

$$

ANZ835-935-AMZ111-154-330-350-352-354-370-450-454-472-282200-
...C-MAN AND BUOY OBSERVATIONS...

STATION/POSITION TIME  TEMP    WIND        PRES    WAVE   SWELL
                       AIR SEA DIR/SP/G            HT/PER HT/PER/DIR
                 (UTC) (F)     (DEG/KT/KT) (MB)    (FT/S) (FT/S/D)
BUOY 41004       2100   47 72  360/ 10/ 16 1026.0R   5/ 7   5/ 7
BUOY 41008       2100   48 63   20/  8/ 12 1026.4S   4/ 6   3/ 50/ 6
FOLLY BEACH CMAN 2100   48      10/  5/  7 1027.2R
CAPERS NEARSHORE 2000   49     100/  4/  6   N/A
FRIPP NEARSHORE  NOT AVBL


STATION/POSITION TIME  TEMP    WIND        PRES    WAVE   SWELL
                       AIR SEA DIR/SP/G            HT/PER HT/PER/DIR
                 (UTC) (F)     (DEG/KT/KT) (MB)    (FT/S) (FT/S/D)
5E ST. MARYS GA  2100      61                N/A     4/ 6   2/110/14
FRYING PAN BUOY  2100   45 68  340/ 10/ 16 1026.4R   4/ 6   3/ 60/ 6
BUOY 41025       2100   45     330/ 16/ 21 1024.9R   5/ 7   3/ 40/ 8
CAPE LOOKOUT NC  2100   44     360/  8/ 10 1025.2F
BUOY 41002       2006   59 72  340/ 16/ 21 1022.0R   9/ 8   7/320/ 8
BUOY 41010       2100   65 77  360/ 16/ 21 1022.1R   6/ 8   3/360/ 8
ST AUGUSTINE FL  2100   52      20/ 10/ 13 1026.5R


$$



USA.gov is the U.S. government's official web portal to all federal, state and local government web resources and services.